Starlink 31328

operational
NORAD ID: 58880 Int'l Des: 2024-020 Owner: SPXS Country: US Constellation: starlink
LEOCIRCULAR

Über Starlink 31328

Beschreibung wird geladen...

Live-Position

3D-Globus wird geladen...

Nächste Überflüge

Höhenverlauf

Altitude vs Time

uPlot chart will show altitude changes over time

Zweizeiliger Elementsatz

1 58880U 24020E 25258.70891480 .00000810 00000-0 39491-4 0 9995
2 58880 53.1620 39.9807 0001178 94.2810 265.8325 15.30191555 91494
Epoch: 15. Sept. 2025 • Age: 26 hours

Aktueller Status

Höhe 478.6 km
Geschwindigkeit 7.63 km/s
Subsatellitenpunkt 42.18°N, 102.86°W
Startdatum 29. Jan. 2024
Alter 1.6 years
Typ internet

Technische Details

Klassifizierung Payload
Masse 730.00 kg
Trockenmasse 700.00 kg
Gesamtmasse 730.00 kg
Länge 0.30 m
Durchmesser 4.10 m
Spannweite 29.00 m
Form Box + pan
Hersteller SPXS
Bus-Typ Starlink V2M
Phasenstatus In Orbit
Besitzer/Staat SPXS/US

Große Konstellationen

Loading constellations...